This is the latest recevied weather packets stored in our database for station/object SP1BMW-13. If no packets are shown the sender has not sent any weather packets the latest 10 day(s).
| Time | Temp. | Humidity | Pressure | Rain* | Wind** | Luminosity | Snow |
|---|---|---|---|---|---|---|---|
| 1788101978 | 27.22° C | 46% | 1008.2 hPa | 0 mm | 1.34 m/s, 279° | 302 W/m² | - |
| 1788101920 | 27.22° C | 46% | 1008.2 hPa | 0 mm | 1.34 m/s, 281° | 355 W/m² | - |
| 1788101858 | 26.67° C | 46% | 1008.2 hPa | 0 mm | 0.89 m/s, 261° | 389 W/m² | - |
| 1788101798 | 26.67° C | 46% | 1008 hPa | 0 mm | 1.34 m/s, 275° | 391 W/m² | - |
| 1788101740 | 26.67° C | 46% | 1008.2 hPa | 0 mm | 1.79 m/s, 207° | 407 W/m² | - |
| 1788101678 | 26.67° C | 47% | 1008.1 hPa | 0 mm | 1.79 m/s, 228° | 414 W/m² | - |
| 1788101618 | 26.67° C | 47% | 1007.8 hPa | 0 mm | 3.13 m/s, 329° | 414 W/m² | - |
| 1788101558 | 26.11° C | 47% | 1008.2 hPa | 0 mm | 1.79 m/s, 316° | 399 W/m² | - |
| 1788101498 | 26.11° C | 47% | 1008.1 hPa | 0 mm | 0.45 m/s, 197° | 386 W/m² | - |
| 1788101438 | 26.11° C | 47% | 1008.3 hPa | 0 mm | 0.89 m/s, 248° | 389 W/m² | - |
| 1788101380 | 26.67° C | 47% | 1008.4 hPa | 0 mm | 0.89 m/s, 176° | 195 W/m² | - |
| 1788101320 | 26.67° C | 47% | 1008.2 hPa | 0 mm | 1.79 m/s, 305° | 116 W/m² | - |
| 1788101258 | 26.67° C | 46% | 1008.1 hPa | 0 mm | 1.79 m/s, 238° | 106 W/m² | - |
| 1788101201 | 26.67° C | 46% | 1008.1 hPa | 0 mm | 0.89 m/s, 290° | 105 W/m² | - |
| 1788101141 | 26.67° C | 46% | 1008.2 hPa | 0 mm | 0.45 m/s, 252° | 116 W/m² | - |
| 1788101080 | 27.22° C | 45% | 1008.3 hPa | 0 mm | 0.89 m/s, 277° | 138 W/m² | - |
| 1788101017 | 27.22° C | 45% | 1008.1 hPa | 0 mm | 0.45 m/s, 202° | 169 W/m² | - |
| 1788100958 | 27.22° C | 45% | 1008.2 hPa | 0 mm | 1.34 m/s, 96° | 243 W/m² | - |
| 1788100898 | 27.22° C | 44% | 1008.1 hPa | 0 mm | 1.34 m/s, 217° | 177 W/m² | - |
| 1788100837 | 27.22° C | 43% | 1007.9 hPa | 0 mm | 2.68 m/s, 245° | 134 W/m² | - |
| 1788100777 | 27.22° C | 44% | 1008.3 hPa | 0 mm | 1.79 m/s, 246° | 398 W/m² | - |
| 1788100720 | 27.22° C | 44% | 1008 hPa | 0 mm | 1.79 m/s, 111° | 399 W/m² | - |
| 1788100658 | 27.22° C | 44% | 1008.1 hPa | 0 mm | 1.34 m/s, 180° | 217 W/m² | - |
| 1788100606 | 27.22° C | 45% | 1008.1 hPa | 0 mm | 0.89 m/s, 211° | 404 W/m² | - |
| 1788100541 | 27.22° C | 45% | 1008.1 hPa | 0 mm | 2.24 m/s, 254° | 415 W/m² | - |
* Rain latest hour (hover to see other rain measurements)
** Current wind speed in m/s (hover to see current wind gust speed)